| time (UTC) | temp F | wind direction | speed MPH | gust MPH | rain 1hr in | rain 24hr in | rain mn in | humidity % | barometer mb |
| 20260906101625 | 70 | 42 | 0.0 | 0.0 | 0.00 | 0.00 | 0.00 | 98 | 1011.5 |
| 20260906101125 | 70 | 42 | 0.0 | 0.0 | 0.00 | 0.00 | 0.00 | 98 | 1011.2 |
| 20260906100621 | 70 | 42 | 0.0 | 0.0 | 0.00 | 0.00 | 0.00 | 98 | 1011.3 |
| 20260906100122 | 70 | 42 | 0.0 | 0.0 | 0.00 | 0.00 | 0.00 | 98 | 1011.7 |
| 20260906095622 | 70 | 42 | 0.0 | 0.0 | 0.00 | 0.00 | 0.00 | 98 | 1011.5 |
| 20260906095118 | 70 | 42 | 0.0 | 0.0 | 0.00 | 0.00 | 0.00 | 98 | 1011.4 |
| 20260906094616 | 70 | 42 | 0.0 | 0.0 | 0.00 | 0.00 | 0.00 | 98 | 1011.4 |
| 20260906094112 | 70 | 42 | 0.0 | 0.0 | 0.00 | 0.00 | 0.00 | 98 | 1011.3 |
| 20260906093608 | 70 | 42 | 0.0 | 0.0 | 0.00 | 0.00 | 0.00 | 98 | 1011.3 |
| 20260906093103 | 70 | 42 | 0.0 | 0.0 | 0.00 | 0.00 | 0.00 | 98 | 1011.3 |
| 20260906092558 | 70 | 42 | 0.0 | 0.0 | 0.00 | 0.00 | 0.00 | 98 | 1011.2 |
| 20260906092053 | 70 | 42 | 0.0 | 0.0 | 0.00 | 0.00 | 0.00 | 98 | 1011.1 |
| 20260906091548 | 70 | 42 | 0.0 | 0.0 | 0.00 | 0.00 | 0.00 | 98 | 1011.1 |
| 20260906091045 | 70 | 42 | 0.0 | 0.0 | 0.00 | 0.00 | 0.00 | 98 | 1011.1 |
| 20260906090545 | 70 | 42 | 0.0 | 0.0 | 0.00 | 0.00 | 0.00 | 98 | 1010.9 |
| 20260906090040 | 70 | 42 | 0.0 | 0.0 | 0.00 | 0.00 | 0.00 | 98 | 1010.9 |
| 20260906085539 | 70 | 42 | 0.0 | 0.0 | 0.00 | 0.00 | 0.00 | 98 | 1010.9 |
| 20260906085038 | 70 | 42 | 0.0 | 0.0 | 0.00 | 0.00 | 0.00 | 98 | 1011.0 |
| 20260906084533 | 70 | 42 | 0.0 | 0.0 | 0.00 | 0.00 | 0.00 | 98 | 1011.2 |
| 20260906084031 | 70 | 42 | 0.0 | 0.0 | 0.00 | 0.00 | 0.00 | 98 | 1011.0 |
| 20260906083528 | 71 | 42 | 0.0 | 0.0 | 0.00 | 0.00 | 0.00 | 98 | 1010.8 |
| 20260906083027 | 71 | 42 | 0.0 | 0.0 | 0.00 | 0.00 | 0.00 | 98 | 1011.1 |
| 20260906082522 | 71 | 42 | 0.0 | 0.0 | 0.00 | 0.00 | 0.00 | 98 | 1011.0 |
| 20260906082018 | 71 | 42 | 0.0 | 0.0 | 0.00 | 0.00 | 0.00 | 98 | 1010.8 |
| 20260906081514 | 71 | 42 | 0.0 | 0.0 | 0.00 | 0.00 | 0.00 | 98 | 1010.9 |
| 20260906081009 | 71 | 42 | 0.0 | 0.0 | 0.00 | 0.00 | 0.00 | 98 | 1010.9 |
| 20260906080506 | 71 | 42 | 0.0 | 0.0 | 0.00 | 0.00 | 0.00 | 98 | 1011.0 |
| 20260906080001 | 71 | 42 | 0.0 | 0.0 | 0.00 | 0.00 | 0.00 | 98 | 1010.9 |
| 20260906075455 | 71 | 42 | 0.0 | 0.0 | 0.00 | 0.00 | 0.00 | 98 | 1011.1 |
| 20260906074951 | 71 | 42 | 0.0 | 0.0 | 0.00 | 0.00 | 0.00 | 98 | 1011.1 |
| 20260906074451 | 71 | 42 | 0.0 | 0.0 | 0.00 | 0.00 | 0.00 | 98 | 1010.9 |
| 20260906073949 | 71 | 42 | 0.0 | 0.0 | 0.00 | 0.00 | 0.00 | 98 | 1010.7 |
| 20260906073444 | 71 | 42 | 0.0 | 0.0 | 0.00 | 0.00 | 0.00 | 97 | 1010.5 |
| 20260906072941 | 71 | 42 | 0.0 | 0.0 | 0.00 | 0.00 | 0.00 | 97 | 1010.8 |
| 20260906072435 | 71 | 42 | 0.0 | 0.0 | 0.00 | 0.00 | 0.00 | 97 | 1010.8 |
| 20260906071931 | 71 | 42 | 0.0 | 0.0 | 0.00 | 0.00 | 0.00 | 97 | 1010.7 |
| 20260906071427 | 70 | 42 | 0.0 | 0.0 | 0.00 | 0.00 | 0.00 | 97 | 1010.8 |
| 20260906070923 | 71 | 42 | 0.0 | 0.0 | 0.00 | 0.00 | 0.00 | 97 | 1010.6 |
| 20260906070419 | 71 | 42 | 0.0 | 0.0 | 0.00 | 0.00 | 0.00 | 97 | 1010.8 |
| 20260906065914 | 71 | 42 | 0.0 | 0.0 | 0.00 | 0.00 | 0.00 | 97 | 1010.8 |
| 20260906065408 | 71 | 42 | 0.0 | 0.0 | 0.00 | 0.00 | 0.00 | 97 | 1011.0 |
| 20260906064904 | 71 | 42 | 0.0 | 0.0 | 0.00 | 0.00 | 0.00 | 97 | 1010.8 |
| 20260906064401 | 71 | 42 | 0.0 | 0.0 | 0.00 | 0.00 | 0.00 | 97 | 1011.0 |
| 20260906063900 | 71 | 42 | 0.0 | 0.0 | 0.00 | 0.00 | 0.00 | 97 | 1010.9 |
| 20260906063355 | 71 | 42 | 0.0 | 0.0 | 0.00 | 0.00 | 0.00 | 97 | 1011.1 |
| 20260906062850 | 71 | 42 | 0.0 | 0.0 | 0.00 | 0.00 | 0.00 | 97 | 1011.2 |
| 20260906062350 | 71 | 42 | 0.0 | 1.0 | 0.00 | 0.00 | 0.00 | 97 | 1011.3 |
| 20260906061845 | 72 | 42 | 0.0 | 0.0 | 0.00 | 0.00 | 0.00 | 97 | 1011.4 |
| 20260906061342 | 72 | 42 | 0.0 | 0.0 | 0.00 | 0.00 | 0.00 | 97 | 1011.4 |
| 20260906060836 | 72 | 42 | 0.0 | 0.0 | 0.00 | 0.00 | 0.00 | 97 | 1011.2 |
| 20260906060334 | 72 | 42 | 0.0 | 1.0 | 0.00 | 0.00 | 0.00 | 97 | 1011.1 |
| 20260906055830 | 72 | 47 | 0.0 | 1.0 | 0.00 | 0.00 | 0.00 | 97 | 1011.4 |
| 20260906055325 | 72 | 34 | 0.0 | 2.0 | 0.00 | 0.00 | 0.00 | 97 | 1011.7 |
| 20260906054820 | 72 | 39 | 0.0 | 1.0 | 0.00 | 0.00 | 0.00 | 98 | 1011.7 |
| 20260906054315 | 72 | 39 | 0.0 | 0.0 | 0.00 | 0.00 | 0.00 | 98 | 1011.7 |
| 20260906053812 | 73 | 39 | 0.0 | 0.0 | 0.00 | 0.00 | 0.00 | 98 | 1011.8 |
| 20260906053307 | 73 | 39 | 0.0 | 1.0 | 0.00 | 0.00 | 0.00 | 98 | 1011.8 |
| 20260906052802 | 73 | 36 | 0.0 | 0.0 | 0.00 | 0.00 | 0.00 | 98 | 1011.9 |
| 20260906052258 | 73 | 36 | 0.0 | 0.0 | 0.00 | 0.00 | 0.00 | 98 | 1011.7 |
| 20260906051755 | 73 | 36 | 0.0 | 0.0 | 0.00 | 0.00 | 0.00 | 98 | 1011.9 |
| 20260906051254 | 73 | 36 | 0.0 | 0.0 | 0.00 | 0.00 | 0.00 | 98 | 1011.9 |
| 20260906050750 | 73 | 36 | 1.0 | 1.0 | 0.00 | 0.00 | 0.00 | 98 | 1011.9 |
| 20260906050245 | 73 | 90 | 0.0 | 0.0 | 0.00 | 0.00 | 0.00 | 97 | 1011.8 |
| 20260906045744 | 73 | 90 | 0.0 | 0.0 | 0.00 | 0.00 | 0.00 | 97 | 1011.8 |
| 20260906045239 | 73 | 90 | 0.0 | 0.0 | 0.00 | 0.00 | 0.00 | 97 | 1011.8 |
| 20260906044735 | 73 | 90 | 0.0 | 0.0 | 0.00 | 0.00 | 0.00 | 97 | 1012.0 |
| 20260906044229 | 73 | 90 | 0.0 | 0.0 | 0.00 | 0.00 | 0.00 | 97 | 1012.1 |
| 20260906043726 | 73 | 90 | 0.0 | 0.0 | 0.00 | 0.00 | 0.00 | 97 | 1012.1 |
| 20260906043221 | 72 | 90 | 0.0 | 0.0 | 0.00 | 0.00 | 0.00 | 97 | 1012.2 |
| 20260906042721 | 72 | 90 | 0.0 | 0.0 | 0.00 | 0.00 | 0.00 | 97 | 1012.2 |
| 20260906042220 | 72 | 90 | 0.0 | 0.0 | 0.00 | 0.00 | 0.00 | 97 | 1012.2 |
| 20260906041715 | 72 | 90 | 0.0 | 0.0 | 0.00 | 0.00 | 0.00 | 97 | 1012.2 |
| 20260906041211 | 72 | 90 | 0.0 | 0.0 | 0.00 | 0.00 | 0.00 | 97 | 1012.2 |
| 20260906040706 | 72 | 90 | 0.0 | 0.0 | 0.00 | 0.00 | 0.00 | 97 | 1012.2 |
| 20260906040201 | 72 | 90 | 0.0 | 0.0 | 0.00 | 0.00 | 0.00 | 97 | 1012.1 |
| 20260906035657 | 72 | 90 | 0.0 | 0.0 | 0.00 | 0.28 | 0.28 | 97 | 1012.2 |
| 20260906035152 | 73 | 90 | 0.0 | 0.0 | 0.00 | 0.28 | 0.28 | 97 | 1012.1 |
| 20260906034647 | 73 | 90 | 0.0 | 0.0 | 0.05 | 0.28 | 0.28 | 97 | 1012.0 |
| 20260906034141 | 73 | 90 | 0.0 | 1.0 | 0.05 | 0.28 | 0.28 | 97 | 1012.1 |
| 20260906033638 | 73 | 36 | 0.0 | 0.0 | 0.00 | 0.27 | 0.27 | 97 | 1012.2 |
| 20260906033137 | 73 | 35 | 0.0 | 0.0 | 0.00 | 0.27 | 0.27 | 97 | 1011.9 |
| 20260906032634 | 73 | 36 | 0.0 | 0.0 | 0.00 | 0.27 | 0.27 | 97 | 1012.0 |
| 20260906032134 | 73 | 35 | 0.0 | 0.0 | 0.00 | 0.27 | 0.27 | 97 | 1012.0 |
| 20260906031629 | 73 | 35 | 0.0 | 0.0 | 0.00 | 0.27 | 0.27 | 97 | 1012.0 |
| 20260906031125 | 73 | 35 | 0.0 | 0.0 | 0.00 | 0.27 | 0.27 | 97 | 1012.2 |
| 20260906030624 | 73 | 36 | 0.0 | 0.0 | 0.00 | 0.27 | 0.27 | 97 | 1012.1 |
| 20260906030119 | 73 | 35 | 0.0 | 0.0 | 0.00 | 0.27 | 0.27 | 97 | 1012.2 |
| 20260906025618 | 73 | 36 | 0.0 | 0.0 | 0.00 | 0.27 | 0.27 | 97 | 1012.2 |
| 20260906025118 | 73 | 35 | 0.0 | 0.0 | 0.00 | 0.27 | 0.27 | 97 | 1012.3 |
| 20260906024612 | 73 | 36 | 0.0 | 0.0 | 0.00 | 0.27 | 0.27 | 97 | 1012.2 |
| 20260906024107 | 73 | 35 | 0.0 | 0.0 | 0.00 | 0.27 | 0.27 | 97 | 1012.4 |
| 20260906023604 | 73 | 35 | 0.0 | 0.0 | 0.00 | 0.27 | 0.27 | 97 | 1012.3 |
| 20260906023103 | 73 | 35 | 0.0 | 0.0 | 0.00 | 0.27 | 0.27 | 97 | 1012.4 |
| 20260906022558 | 73 | 35 | 0.0 | 0.0 | 0.00 | 0.27 | 0.27 | 97 | 1012.3 |
| 20260906022054 | 73 | 35 | 0.0 | 0.0 | 0.00 | 0.27 | 0.27 | 97 | 1012.2 |
| 20260906021550 | 73 | 35 | 0.0 | 0.0 | 0.00 | 0.27 | 0.27 | 97 | 1011.9 |
| 20260906021048 | 73 | 35 | 0.0 | 0.0 | 0.00 | 0.27 | 0.27 | 97 | 1012.1 |
| 20260906020548 | 73 | 35 | 0.0 | 0.0 | 0.00 | 0.27 | 0.27 | 97 | 1012.1 |
| 20260906020048 | 73 | 35 | 0.0 | 0.0 | 0.00 | 0.27 | 0.27 | 97 | 1012.0 |
| 20260906015547 | 73 | 35 | 0.0 | 0.0 | 0.00 | 0.27 | 0.27 | 96 | 1012.2 |
| 20260906015047 | 73 | 35 | 0.0 | 0.0 | 0.00 | 0.27 | 0.27 | 96 | 1012.2 |
| 20260906014542 | 73 | 35 | 0.0 | 0.0 | 0.00 | 0.27 | 0.27 | 96 | 1011.9 |
| 20260906014038 | 73 | 35 | 0.0 | 0.0 | 0.00 | 0.27 | 0.27 | 96 | 1011.9 |
| 20260906013533 | 73 | 35 | 0.0 | 0.0 | 0.00 | 0.27 | 0.27 | 96 | 1012.0 |
| 20260906013028 | 73 | 29 | 0.0 | 0.0 | 0.00 | 0.27 | 0.27 | 96 | 1011.8 |
| 20260906012523 | 73 | 29 | 0.0 | 0.0 | 0.00 | 0.27 | 0.27 | 96 | 1011.7 |
| 20260906012023 | 73 | 22 | 0.0 | 0.0 | 0.00 | 0.27 | 0.27 | 96 | 1011.4 |
| 20260906011519 | 73 | 22 | 0.0 | 0.0 | 0.00 | 0.27 | 0.27 | 96 | 1011.2 |
| 20260906011019 | 73 | 22 | 0.0 | 0.0 | 0.00 | 0.27 | 0.27 | 96 | 1011.2 |
| 20260906010514 | 73 | 22 | 0.0 | 0.0 | 0.00 | 0.27 | 0.27 | 96 | 1011.4 |
| 20260906010011 | 73 | 22 | 0.0 | 0.0 | 0.00 | 0.27 | 0.27 | 96 | 1011.2 |
| 20260906005510 | 73 | 22 | 0.0 | 1.0 | 0.00 | 0.27 | 0.27 | 96 | 1011.2 |
| 20260906005009 | 73 | 22 | 0.0 | 0.0 | 0.00 | 0.27 | 0.27 | 96 | 1011.5 |
| 20260906004508 | 74 | 22 | 0.0 | 0.0 | 0.00 | 0.27 | 0.27 | 96 | 1011.6 |
| 20260906004004 | 74 | 22 | 1.0 | 1.0 | 0.00 | 0.27 | 0.27 | 96 | 1011.5 |
| 20260906003459 | 74 | 22 | 0.0 | 0.0 | 0.00 | 0.27 | 0.27 | 95 | 1011.7 |
| 20260906002954 | 74 | 27 | 0.0 | 1.0 | 0.00 | 0.27 | 0.27 | 95 | 1011.6 |
| 20260906002454 | 74 | 27 | 0.0 | 1.0 | 0.00 | 0.27 | 0.27 | 95 | 1011.8 |
| 20260906001949 | 74 | 38 | 0.0 | 0.0 | 0.00 | 0.27 | 0.27 | 95 | 1011.8 |
| 20260906001445 | 74 | 18 | 0.0 | 1.0 | 0.00 | 0.27 | 0.27 | 95 | 1011.9 |
| 20260906000940 | 74 | 25 | 0.0 | 4.0 | 0.00 | 0.27 | 0.27 | 95 | 1011.7 |
| 20260906000436 | 74 | 68 | 0.0 | 0.0 | 0.00 | 0.27 | 0.27 | 95 | 1011.8 |
| 20260905235930 | 74 | 52 | 0.0 | 0.0 | 0.00 | 0.27 | 0.27 | 95 | 1011.7 |
| 20260905235430 | 74 | 70 | 0.0 | 0.0 | 0.00 | 0.27 | 0.27 | 95 | 1011.7 |
| 20260905234925 | 74 | 56 | 0.0 | 0.0 | 0.00 | 0.27 | 0.27 | 95 | 1011.6 |
| 20260905234421 | 74 | 54 | 0.0 | 0.0 | 0.00 | 0.27 | 0.27 | 95 | 1011.8 |
| 20260905233921 | 74 | 50 | 0.0 | 1.0 | 0.00 | 0.27 | 0.27 | 94 | 1011.7 |
| 20260905233416 | 74 | 69 | 0.0 | 1.0 | 0.00 | 0.27 | 0.27 | 94 | 1011.9 |
| 20260905232915 | 74 | 78 | 0.0 | 1.0 | 0.00 | 0.27 | 0.27 | 94 | 1011.9 |
| 20260905232411 | 74 | 65 | 0.0 | 1.0 | 0.00 | 0.27 | 0.27 | 94 | 1011.8 |
| 20260905231906 | 74 | 73 | 0.0 | 0.0 | 0.00 | 0.27 | 0.27 | 94 | 1011.6 |
| 20260905231402 | 75 | 75 | 0.0 | 0.0 | 0.00 | 0.27 | 0.27 | 95 | 1011.7 |
| 20260905230859 | 75 | 57 | 0.0 | 0.0 | 0.00 | 0.27 | 0.27 | 95 | 1011.6 |
| 20260905230356 | 75 | 21 | 1.0 | 1.0 | 0.00 | 0.27 | 0.27 | 94 | 1011.4 |
| 20260905225855 | 75 | 87 | 0.0 | 1.0 | 0.00 | 0.27 | 0.27 | 94 | 1011.1 |
| 20260905225350 | 75 | 73 | 0.0 | 0.0 | 0.00 | 0.27 | 0.27 | 94 | 1010.8 |
| 20260905224846 | 75 | 48 | 0.0 | 2.0 | 0.00 | 0.27 | 0.27 | 94 | 1010.8 |
| 20260905224342 | 75 | 70 | 0.0 | 1.0 | 0.00 | 0.27 | 0.27 | 95 | 1010.9 |
| 20260905223841 | 75 | 90 | 0.0 | 1.0 | 0.00 | 0.27 | 0.27 | 94 | 1010.4 |
| 20260905223339 | 75 | 49 | 2.0 | 2.0 | 0.00 | 0.27 | 0.27 | 94 | 1010.6 |
| 20260905222834 | 75 | 55 | 0.0 | 0.0 | 0.07 | 0.27 | 0.27 | 93 | 1010.3 |
| 20260905222333 | 75 | 61 | 0.0 | 0.0 | 0.07 | 0.27 | 0.27 | 93 | 1010.5 |
| 20260905221829 | 76 | 51 | 0.0 | 0.0 | 0.00 | 0.26 | 0.26 | 92 | 1010.8 |
| 20260905221326 | 76 | 69 | 0.0 | 1.0 | 0.00 | 0.26 | 0.26 | 92 | 1010.9 |
| 20260905220821 | 76 | 78 | 1.0 | 2.0 | 0.00 | 0.26 | 0.26 | 93 | 1011.3 |
| 20260905220317 | 76 | 71 | 0.0 | 2.0 | 0.00 | 0.26 | 0.26 | 93 | 1012.0 |
| 20260905215816 | 76 | 73 | 1.0 | 2.0 | 0.00 | 0.26 | 0.26 | 93 | 1011.9 |
| 20260905215312 | 76 | 60 | 0.0 | 1.0 | 0.00 | 0.26 | 0.26 | 93 | 1011.5 |
| 20260905214808 | 76 | 32 | 0.0 | 1.0 | 0.00 | 0.26 | 0.26 | 91 | 1011.6 |
| 20260905214304 | 77 | 72 | 0.0 | 2.0 | 0.19 | 0.26 | 0.26 | 89 | 1011.9 |
| 20260905213758 | 78 | 84 | 2.0 | 2.0 | 1.32 | 0.26 | 0.26 | 84 | 1012.4 |
| 20260905213255 | 81 | 223 | 4.0 | 6.0 | 1.37 | 0.23 | 0.23 | 80 | 1012.2 |
| 20260905212749 | 89 | 44 | 2.0 | 9.0 | 0.19 | 0.03 | 0.03 | 64 | 1012.0 |
| 20260905212249 | 90 | 47 | 1.0 | 3.0 | 0.00 | 0.00 | 0.00 | 54 | 1011.1 |
| 20260905211749 | 89 | 324 | 5.0 | 15.0 | 0.00 | 0.00 | 0.00 | 59 | 1010.7 |
| 20260905211244 | 92 | 176 | 0.0 | 1.0 | 0.00 | 0.00 | 0.00 | 62 | 1009.9 |
| 20260905210741 | 95 | 124 | 1.0 | 1.0 | 0.00 | 0.00 | 0.00 | 54 | 1009.5 |
| 20260905210240 | 95 | 81 | 0.0 | 1.0 | 0.00 | 0.00 | 0.00 | 51 | 1009.4 |
| 20260905205739 | 96 | 77 | 0.0 | 1.0 | 0.00 | 0.00 | 0.00 | 50 | 1009.3 |
| 20260905205234 | 97 | 71 | 0.0 | 0.0 | 0.00 | 0.00 | 0.00 | 52 | 1009.4 |
| 20260905204733 | 97 | 56 | 0.0 | 0.0 | 0.00 | 0.00 | 0.00 | 46 | 1009.5 |
| 20260905204230 | 97 | 73 | 0.0 | 1.0 | 0.00 | 0.00 | 0.00 | 46 | 1009.7 |
| 20260905203729 | 98 | 50 | 0.0 | 1.0 | 0.00 | 0.00 | 0.00 | 46 | 1009.7 |
| 20260905203225 | 98 | 25 | 0.0 | 2.0 | 0.00 | 0.00 | 0.00 | 46 | 1009.7 |
| 20260905202720 | 98 | 48 | 1.0 | 1.0 | 0.00 | 0.00 | 0.00 | 45 | 1009.7 |
| 20260905202215 | 98 | 18 | 3.0 | 7.0 | 0.00 | 0.00 | 0.00 | 45 | 1009.5 |
| 20260905201711 | 99 | 49 | 1.0 | 2.0 | 0.00 | 0.00 | 0.00 | 45 | 1010.0 |
| 20260905201210 | 99 | 26 | 1.0 | 2.0 | 0.00 | 0.00 | 0.00 | 44 | 1009.9 |
| 20260905200706 | 99 | 68 | 2.0 | 4.0 | 0.00 | 0.00 | 0.00 | 44 | 1009.9 |
| 20260905200201 | 99 | 196 | 2.0 | 3.0 | 0.00 | 0.00 | 0.00 | 44 | 1010.0 |
| 20260905195659 | 100 | 296 | 4.0 | 4.0 | 0.00 | 0.00 | 0.00 | 43 | 1009.9 |
| 20260905195154 | 100 | 89 | 1.0 | 2.0 | 0.00 | 0.00 | 0.00 | 44 | 1010.1 |
| 20260905194650 | 101 | 65 | 0.0 | 4.0 | 0.00 | 0.00 | 0.00 | 44 | 1010.1 |
| 20260905194150 | 101 | 183 | 1.0 | 1.0 | 0.00 | 0.00 | 0.00 | 41 | 1009.8 |
| 20260905193649 | 101 | 138 | 2.0 | 4.0 | 0.00 | 0.00 | 0.00 | 43 | 1010.0 |
| 20260905193144 | 101 | 75 | 1.0 | 2.0 | 0.00 | 0.00 | 0.00 | 41 | 1010.0 |
| 20260905192640 | 101 | 111 | 2.0 | 3.0 | 0.00 | 0.00 | 0.00 | 43 | 1010.0 |
| 20260905192137 | 100 | 78 | 1.0 | 6.0 | 0.00 | 0.00 | 0.00 | 42 | 1010.1 |
| 20260905191636 | 100 | 82 | 0.0 | 2.0 | 0.00 | 0.00 | 0.00 | 42 | 1010.2 |
| 20260905191134 | 100 | 78 | 2.0 | 4.0 | 0.00 | 0.00 | 0.00 | 45 | 1010.4 |
| 20260905190632 | 101 | 63 | 2.0 | 3.0 | 0.00 | 0.00 | 0.00 | 41 | 1010.4 |
| 20260905190132 | 101 | 349 | 1.0 | 1.0 | 0.00 | 0.00 | 0.00 | 41 | 1010.6 |
| 20260905185631 | 101 | 102 | 1.0 | 2.0 | 0.00 | 0.00 | 0.00 | 41 | 1010.5 |
| 20260905185126 | 101 | 301 | 2.0 | 2.0 | 0.00 | 0.00 | 0.00 | 42 | 1010.6 |
| 20260905184620 | 101 | 182 | 3.0 | 3.0 | 0.00 | 0.00 | 0.00 | 43 | 1010.8 |
| 20260905184119 | 101 | 106 | 2.0 | 3.0 | 0.00 | 0.00 | 0.00 | 43 | 1010.8 |
| 20260905183619 | 101 | 48 | 1.0 | 6.0 | 0.00 | 0.00 | 0.00 | 43 | 1010.9 |
| 20260905183114 | 101 | 49 | 0.0 | 2.0 | 0.00 | 0.00 | 0.00 | 42 | 1011.0 |
| 20260905182613 | 100 | 86 | 1.0 | 3.0 | 0.00 | 0.00 | 0.00 | 43 | 1011.1 |
| 20260905182114 | 100 | 46 | 1.0 | 3.0 | 0.00 | 0.00 | 0.00 | 43 | 1011.4 |
| 20260905181614 | 100 | 75 | 1.0 | 2.0 | 0.00 | 0.00 | 0.00 | 43 | 1011.6 |
| 20260905181113 | 100 | 166 | 1.0 | 3.0 | 0.00 | 0.00 | 0.00 | 43 | 1011.5 |
| 20260905180608 | 100 | 78 | 0.0 | 2.0 | 0.00 | 0.00 | 0.00 | 43 | 1011.9 |
| 20260905180103 | 100 | 347 | 1.0 | 3.0 | 0.00 | 0.00 | 0.00 | 45 | 1011.6 |
| 20260905175603 | 100 | 32 | 1.0 | 3.0 | 0.00 | 0.00 | 0.00 | 44 | 1011.8 |
| 20260905175058 | 99 | 358 | 2.0 | 2.0 | 0.00 | 0.00 | 0.00 | 48 | 1012.0 |
| 20260905174553 | 98 | 52 | 0.0 | 2.0 | 0.00 | 0.00 | 0.00 | 46 | 1011.8 |
| 20260905174049 | 97 | 42 | 1.0 | 2.0 | 0.00 | 0.00 | 0.00 | 48 | 1011.9 |
| 20260905173545 | 97 | 187 | 2.0 | 3.0 | 0.00 | 0.00 | 0.00 | 48 | 1011.9 |
| 20260905173040 | 98 | 109 | 6.0 | 7.0 | 0.00 | 0.00 | 0.00 | 45 | 1011.8 |
| 20260905172539 | 98 | 41 | 1.0 | 2.0 | 0.00 | 0.00 | 0.00 | 45 | 1012.2 |
| 20260905172034 | 99 | 196 | 2.0 | 3.0 | 0.00 | 0.00 | 0.00 | 46 | 1012.2 |
| 20260905171531 | 97 | 171 | 1.0 | 2.0 | 0.00 | 0.00 | 0.00 | 47 | 1012.2 |
| 20260905171026 | 97 | 49 | 0.0 | 3.0 | 0.00 | 0.00 | 0.00 | 45 | 1012.3 |
| 20260905170523 | 96 | 91 | 2.0 | 3.0 | 0.00 | 0.00 | 0.00 | 47 | 1012.6 |
| 20260905170018 | 97 | 49 | 2.0 | 4.0 | 0.00 | 0.00 | 0.00 | 47 | 1012.6 |
| 20260905165513 | 97 | 158 | 2.0 | 3.0 | 0.00 | 0.00 | 0.00 | 48 | 1012.7 |
| 20260905165008 | 97 | 70 | 2.0 | 2.0 | 0.00 | 0.00 | 0.00 | 46 | 1012.7 |
| 20260905164508 | 96 | 125 | 1.0 | 2.0 | 0.00 | 0.00 | 0.00 | 48 | 1012.8 |
| 20260905164002 | 96 | 44 | 1.0 | 3.0 | 0.00 | 0.00 | 0.00 | 51 | 1013.0 |
| 20260905163459 | 96 | 306 | 2.0 | 3.0 | 0.00 | 0.00 | 0.00 | 49 | 1013.0 |
| 20260905162954 | 96 | 38 | 1.0 | 3.0 | 0.00 | 0.00 | 0.00 | 51 | 1013.1 |
| 20260905162449 | 95 | 150 | 1.0 | 2.0 | 0.00 | 0.00 | 0.00 | 53 | 1013.1 |
| 20260905161944 | 95 | 174 | 2.0 | 2.0 | 0.00 | 0.00 | 0.00 | 53 | 1013.3 |
| 20260905161443 | 95 | 100 | 1.0 | 2.0 | 0.00 | 0.00 | 0.00 | 56 | 1013.3 |
| 20260905160941 | 95 | 29 | 1.0 | 2.0 | 0.00 | 0.00 | 0.00 | 53 | 1013.3 |
| 20260905160436 | 95 | 58 | 1.0 | 3.0 | 0.00 | 0.00 | 0.00 | 54 | 1013.1 |
| 20260905155935 | 95 | 126 | 1.0 | 2.0 | 0.00 | 0.00 | 0.00 | 57 | 1013.5 |
| 20260905155430 | 94 | 30 | 1.0 | 2.0 | 0.00 | 0.00 | 0.00 | 56 | 1013.2 |
| 20260905154929 | 94 | 132 | 0.0 | 1.0 | 0.00 | 0.00 | 0.00 | 58 | 1013.5 |
| 20260905154424 | 95 | 314 | 2.0 | 2.0 | 0.00 | 0.00 | 0.00 | 55 | 1013.6 |
| 20260905153920 | 93 | 108 | 0.0 | 2.0 | 0.00 | 0.00 | 0.00 | 57 | 1013.4 |
| 20260905153416 | 94 | 49 | 0.0 | 2.0 | 0.00 | 0.00 | 0.00 | 57 | 1013.7 |
| 20260905152915 | 94 | 25 | 1.0 | 3.0 | 0.00 | 0.00 | 0.00 | 57 | 1013.8 |
| 20260905152415 | 93 | 16 | 1.0 | 2.0 | 0.00 | 0.00 | 0.00 | 58 | 1013.7 |
| 20260905151910 | 93 | 19 | 1.0 | 2.0 | 0.00 | 0.00 | 0.00 | 58 | 1013.8 |
| 20260905151401 | 93 | 38 | 2.0 | 2.0 | 0.00 | 0.00 | 0.00 | 58 | 1013.8 |
| 20260905150900 | 92 | 69 | 1.0 | 2.0 | 0.00 | 0.00 | 0.00 | 61 | 1013.8 |
| 20260905150400 | 92 | 313 | 1.0 | 4.0 | 0.00 | 0.00 | 0.00 | 60 | 1014.0 |
| 20260905145858 | 91 | 42 | 1.0 | 2.0 | 0.00 | 0.00 | 0.00 | 62 | 1014.0 |
| 20260905145358 | 91 | 35 | 1.0 | 2.0 | 0.00 | 0.00 | 0.00 | 62 | 1014.0 |
| 20260905144857 | 91 | 321 | 0.0 | 2.0 | 0.00 | 0.00 | 0.00 | 62 | 1014.3 |
| 20260905144353 | 91 | 77 | 2.0 | 3.0 | 0.00 | 0.00 | 0.00 | 61 | 1014.3 |
| 20260905143851 | 91 | 36 | 1.0 | 2.0 | 0.00 | 0.00 | 0.00 | 62 | 1014.1 |
| 20260905143346 | 90 | 61 | 1.0 | 2.0 | 0.00 | 0.00 | 0.00 | 65 | 1014.2 |
| 20260905142845 | 89 | 59 | 0.0 | 2.0 | 0.00 | 0.00 | 0.00 | 67 | 1014.2 |
| 20260905142344 | 89 | 28 | 1.0 | 2.0 | 0.00 | 0.00 | 0.00 | 66 | 1014.4 |
| 20260905141840 | 90 | 61 | 1.0 | 2.0 | 0.00 | 0.00 | 0.00 | 66 | 1014.1 |
| 20260905141335 | 90 | 19 | 1.0 | 1.0 | 0.00 | 0.00 | 0.00 | 66 | 1014.1 |
| 20260905140831 | 89 | 73 | 0.0 | 1.0 | 0.00 | 0.00 | 0.00 | 68 | 1014.1 |
| 20260905140331 | 88 | 64 | 0.0 | 2.0 | 0.00 | 0.00 | 0.00 | 70 | 1013.9 |
| 20260905135830 | 87 | 24 | 0.0 | 1.0 | 0.00 | 0.00 | 0.00 | 72 | 1014.2 |
| 20260905135326 | 86 | 39 | 1.0 | 2.0 | 0.00 | 0.00 | 0.00 | 72 | 1014.2 |
| 20260905134822 | 86 | 8 | 1.0 | 1.0 | 0.00 | 0.00 | 0.00 | 73 | 1014.1 |
| 20260905134320 | 85 | 151 | 2.0 | 2.0 | 0.00 | 0.00 | 0.00 | 75 | 1014.2 |
| 20260905133820 | 83 | 34 | 0.0 | 1.0 | 0.00 | 0.00 | 0.00 | 79 | 1014.2 |
| 20260905133316 | 83 | 325 | 2.0 | 3.0 | 0.00 | 0.00 | 0.00 | 80 | 1014.0 |
| 20260905132815 | 83 | 51 | 0.0 | 1.0 | 0.00 | 0.00 | 0.00 | 80 | 1014.1 |
| 20260905132310 | 82 | 200 | 0.0 | 1.0 | 0.00 | 0.00 | 0.00 | 82 | 1014.2 |
| 20260905131805 | 82 | 198 | 2.0 | 3.0 | 0.00 | 0.00 | 0.00 | 82 | 1014.4 |
| 20260905131300 | 82 | 32 | 0.0 | 2.0 | 0.00 | 0.00 | 0.00 | 82 | 1014.3 |
| 20260905130755 | 81 | 337 | 1.0 | 1.0 | 0.00 | 0.00 | 0.00 | 83 | 1014.4 |
| 20260905130254 | 81 | 43 | 1.0 | 2.0 | 0.00 | 0.00 | 0.00 | 83 | 1014.5 |
| 20260905125749 | 81 | 72 | 2.0 | 4.0 | 0.00 | 0.00 | 0.00 | 83 | 1014.5 |
| 20260905125244 | 80 | 97 | 1.0 | 1.0 | 0.00 | 0.00 | 0.00 | 86 | 1014.3 |
| 20260905124741 | 80 | 244 | 1.0 | 6.0 | 0.00 | 0.00 | 0.00 | 86 | 1014.6 |
| 20260905124237 | 80 | 65 | 0.0 | 1.0 | 0.00 | 0.00 | 0.00 | 87 | 1014.3 |
| 20260905123732 | 79 | 57 | 0.0 | 1.0 | 0.00 | 0.00 | 0.00 | 87 | 1014.2 |
| 20260905123229 | 79 | 65 | 0.0 | 3.0 | 0.00 | 0.00 | 0.00 | 88 | 1014.2 |
| 20260905122728 | 79 | 75 | 0.0 | 0.0 | 0.00 | 0.00 | 0.00 | 89 | 1014.5 |
| 20260905122222 | 78 | 72 | 0.0 | 0.0 | 0.00 | 0.00 | 0.00 | 89 | 1014.3 |
| 20260905121718 | 78 | 122 | 0.0 | 1.0 | 0.00 | 0.00 | 0.00 | 90 | 1014.3 |
| 20260905121214 | 78 | 82 | 0.0 | 1.0 | 0.00 | 0.00 | 0.00 | 91 | 1014.2 |
| 20260905120713 | 77 | 76 | 0.0 | 1.0 | 0.00 | 0.00 | 0.00 | 92 | 1014.2 |
| 20260905120208 | 77 | 72 | 0.0 | 0.0 | 0.00 | 0.00 | 0.00 | 92 | 1014.0 |
| 20260905115708 | 77 | 72 | 0.0 | 1.0 | 0.00 | 0.00 | 0.00 | 93 | 1014.0 |
| 20260905115202 | 76 | 70 | 0.0 | 0.0 | 0.00 | 0.00 | 0.00 | 93 | 1014.0 |
| 20260905114702 | 76 | 72 | 0.0 | 0.0 | 0.00 | 0.00 | 0.00 | 94 | 1013.9 |
| 20260905114200 | 76 | 74 | 0.0 | 0.0 | 0.00 | 0.00 | 0.00 | 94 | 1013.9 |
| 20260905113655 | 76 | 76 | 0.0 | 1.0 | 0.00 | 0.00 | 0.00 | 95 | 1013.8 |
| 20260905113150 | 76 | 73 | 0.0 | 0.0 | 0.00 | 0.00 | 0.00 | 95 | 1013.8 |
| 20260905112650 | 75 | 73 | 0.0 | 0.0 | 0.00 | 0.00 | 0.00 | 95 | 1014.0 |
| 20260905112146 | 75 | 74 | 0.0 | 0.0 | 0.00 | 0.00 | 0.00 | 95 | 1013.8 |
| 20260905111645 | 75 | 74 | 0.0 | 0.0 | 0.00 | 0.00 | 0.00 | 95 | 1013.8 |
| 20260905111145 | 75 | 71 | 0.0 | 0.0 | 0.00 | 0.00 | 0.00 | 94 | 1013.7 |
| 20260905110644 | 75 | 71 | 0.0 | 0.0 | 0.00 | 0.00 | 0.00 | 94 | 1013.5 |
| 20260905110139 | 75 | 72 | 0.0 | 0.0 | 0.00 | 0.00 | 0.00 | 94 | 1013.5 |
| 20260905105634 | 75 | 72 | 0.0 | 0.0 | 0.00 | 0.00 | 0.00 | 94 | 1013.5 |
| 20260905105133 | 76 | 72 | 0.0 | 0.0 | 0.00 | 0.00 | 0.00 | 93 | 1013.5 |
| 20260905104629 | 76 | 72 | 0.0 | 0.0 | 0.00 | 0.00 | 0.00 | 93 | 1013.5 |
| 20260905104124 | 76 | 72 | 0.0 | 0.0 | 0.00 | 0.00 | 0.00 | 93 | 1013.4 |
| 20260905103619 | 76 | 72 | 0.0 | 0.0 | 0.00 | 0.00 | 0.00 | 92 | 1013.4 |
| 20260905103115 | 76 | 72 | 0.0 | 0.0 | 0.00 | 0.00 | 0.00 | 92 | 1013.4 |
| 20260905102611 | 76 | 74 | 0.0 | 0.0 | 0.00 | 0.00 | 0.00 | 92 | 1013.6 |
| 20260905102108 | 76 | 73 | 0.0 | 0.0 | 0.00 | 0.00 | 0.00 | 92 | 1013.5 |